This is the latest recevied weather packets stored in our database for station/object KI8L. If no packets are shown the sender has not sent any weather packets the latest 10 day(s).
| Time | Temp. | Humidity | Pressure | Rain* | Wind** | Luminosity | Snow |
|---|---|---|---|---|---|---|---|
| 1777869695 | 8.33° C | 81% | 1014.5 hPa | 0 mm | - | 0 W/m² | - |
| 1777869392 | 8.33° C | 82% | 1014.5 hPa | 0 mm | - | 0 W/m² | - |
| 1777869089 | 8.33° C | 83% | 1014.5 hPa | 0 mm | - | 0 W/m² | - |
| 1777868786 | 8.33° C | 81% | 1014.5 hPa | 0 mm | - | 0 W/m² | - |
| 1777868483 | 7.78° C | 80% | 1014.6 hPa | 0 mm | - | 0 W/m² | - |
| 1777868179 | 7.78° C | 81% | 1014.6 hPa | 0 mm | - | 0 W/m² | - |
| 1777867875 | 7.78° C | 81% | 1014.8 hPa | 0 mm | - | 0 W/m² | - |
| 1777867573 | 7.78° C | 80% | 1014.6 hPa | 0 mm | - | 0 W/m² | - |
| 1777867269 | 7.78° C | 80% | 1014.9 hPa | 0 mm | - | 0 W/m² | - |
| 1777866966 | 7.78° C | 80% | 1014.8 hPa | 0 mm | - | 0 W/m² | - |
| 1777866662 | 7.78° C | 80% | 1014.7 hPa | 0 mm | - | 0 W/m² | - |
| 1777866360 | 8.33° C | 79% | 1014.8 hPa | 0 mm | - | 0 W/m² | - |
| 1777866057 | 8.33° C | 79% | 1014.9 hPa | 0 mm | - | 0 W/m² | - |
| 1777865755 | 7.78° C | 79% | 1014.9 hPa | 0 mm | - | 0 W/m² | - |
| 1777865452 | 8.33° C | 79% | 1014.7 hPa | 0 mm | - | 0 W/m² | - |
| 1777865149 | 8.89° C | 77% | 1014.8 hPa | 0 mm | - | 0 W/m² | - |
| 1777864846 | 9.44° C | 75% | 1014.9 hPa | 0 mm | - | 0 W/m² | - |
| 1777864543 | 9.44° C | 77% | 1015 hPa | 0 mm | - | 0 W/m² | - |
| 1777864239 | 9.44° C | 76% | 1014.8 hPa | 0 mm | - | 0 W/m² | - |
| 1777863936 | 9.44° C | 75% | 1015 hPa | 0 mm | - | 0 W/m² | - |
| 1777863632 | 9.44° C | 77% | 1015 hPa | 0 mm | - | 0 W/m² | - |
| 1777863330 | 9.44° C | 74% | 1015.2 hPa | 0 mm | - | 0 W/m² | - |
| 1777863026 | 10° C | 74% | 1015.2 hPa | 0 mm | - | 0 W/m² | - |
| 1777862723 | 10° C | 73% | 1015.1 hPa | 0 mm | - | 0 W/m² | - |
| 1777862420 | 10° C | 73% | 1015.3 hPa | 0 mm | - | 0 W/m² | - |
* Rain latest hour (hover to see other rain measurements)
** Current wind speed in m/s (hover to see current wind gust speed)